Location: Drummondville
(45.8830°N, 72.4830°W)
Time: 22:53:47
(UTC-05:00)

Vanguard 3 - All Passes

Search period start: 21 November 2017 00:00
Search period end: 01 December 2017 00:00
Orbit: 509 x 3263 km, 33.4° (Epoch: 21 November)

Date Brightness Start Highest point End Pass type
(mag) Time Alt. Az. Time Alt. Az. Time Alt. Az.
21 Nov - 00:29:17 10° W 00:43:34 34° SSW 00:59:48 10° SSE visible
21 Nov - 02:49:47 10° WSW 02:56:52 13° SW 03:03:57 10° SSW visible
21 Nov - 16:45:14 10° SSE 16:49:31 15° SE 16:54:59 10° ESE visible
21 Nov - 18:51:42 10° SW 19:00:16 39° SSE 19:14:04 10° E visible
21 Nov - 21:01:58 10° WSW 21:13:25 50° S 21:30:55 10° ESE visible
21 Nov - 23:14:15 10° W 23:27:55 41° SSW 23:45:26 10° SE visible
22 Nov - 01:30:00 10° W 01:41:58 22° SW 01:54:46 10° S visible
22 Nov - 17:39:49 10° SSW 17:46:30 27° SE 17:56:40 10° E visible
22 Nov - 19:48:49 10° WSW 19:58:25 47° S 20:14:03 10° ESE visible
22 Nov - 22:00:03 10° WSW 22:12:19 46° SSW 22:29:56 10° SE visible
23 Nov - 00:13:35 10° W 00:26:41 30° SSW 00:42:10 10° SSE visible
23 Nov - 02:38:04 10° SW 02:39:58 10° SW 02:41:52 10° SW visible
23 Nov - 16:29:21 10° SSE 16:33:24 15° SE 16:38:35 10° ESE visible
23 Nov - 18:36:14 10° SW 18:44:05 39° SSE 18:56:58 10° E visible
23 Nov - 20:46:28 10° WSW 20:57:01 48° S 21:13:37 10° ESE visible
23 Nov - 22:58:37 10° W 23:11:12 37° SSW 23:27:54 10° SE visible
24 Nov - 01:14:49 10° WSW 01:25:05 18° SW 01:36:21 10° S visible
24 Nov - 17:24:18 10° SSW 17:30:25 27° SSE 17:39:49 10° E visible
24 Nov - 19:33:24 10° WSW 19:42:13 45° S 19:56:50 10° ESE visible
24 Nov - 21:44:31 10° WSW 21:55:48 42° SSW 22:12:28 10° SE visible
24 Nov - 23:58:08 10° W 00:09:54 26° SSW 00:24:14 10° SSE night (unlit)
25 Nov - 16:13:37 10° S 16:17:22 15° SE 16:22:12 10° ESE daylight
25 Nov - 18:20:51 10° SW 18:28:02 38° SSE 18:39:54 10° ESE visible
25 Nov - 20:31:03 10° WSW 20:40:43 45° S 20:56:15 10° ESE visible
25 Nov - 22:43:09 10° W 22:54:35 33° SSW 23:10:10 10° SSE visible
26 Nov - 01:00:17 10° WSW 01:08:19 15° SW 01:17:11 10° SSW night (unlit)
26 Nov - 17:08:53 10° SSW 17:14:28 27° SSE 17:23:02 10° E visible
26 Nov - 19:18:04 10° WSW 19:26:07 43° S 19:39:36 10° ESE visible
26 Nov - 21:29:07 10° WSW 21:39:24 38° SSW 21:54:53 10° SE visible
26 Nov - 23:42:57 10° WSW 23:53:14 22° SSW 00:05:54 10° S night (unlit)
27 Nov - 15:58:01 10° S 16:01:27 15° SE 16:05:52 10° ESE daylight
27 Nov - 18:05:32 10° SW 18:12:05 36° SSE 18:22:54 10° ESE visible
27 Nov - 20:15:44 10° WSW 20:24:32 41° S 20:38:49 10° SE visible
27 Nov - 22:27:52 10° WSW 22:38:06 29° SSW 22:52:11 10° SSE visible
28 Nov - 00:47:15 10° SW 00:51:41 11° SW 00:56:23 10° SSW night (unlit)
28 Nov - 16:53:32 10° SSW 16:58:36 26° SSE 17:06:20 10° ESE visible
28 Nov - 19:02:49 10° WSW 19:10:08 40° S 19:22:24 10° ESE visible
28 Nov - 21:13:51 10° WSW 21:23:07 34° SSW 21:37:09 10° SE visible
28 Nov - 23:28:12 10° WSW 23:36:42 18° SSW 23:47:06 10° S night (unlit)
29 Nov - 15:42:30 10° S 15:45:37 15° SE 15:49:37 10° ESE daylight
29 Nov - 17:50:18 10° SW 17:56:15 35° SSE 18:05:59 10° ESE visible
29 Nov - 20:00:30 10° WSW 20:08:29 37° S 20:21:21 10° SE visible
29 Nov - 22:12:49 10° WSW 22:21:45 24° SSW 22:33:57 10° SSE visible
30 Nov - 16:38:15 10° SSW 16:42:51 25° SSE 16:49:44 10° ESE visible
30 Nov - 18:47:38 10° WSW 18:54:15 36° S 19:05:12 10° ESE visible
30 Nov - 20:58:44 10° WSW 21:06:58 29° SSW 21:19:17 10° SSE visible
30 Nov - 23:14:11 10° WSW 23:20:19 14° SSW 23:27:31 10° S night (unlit)
